#timestamp,LO_Frequency,Hit,StdDev 
1508569215.5,286047005.5,N
1508569235.3,286047003.5,N
1508569255.1,286047003.9,N
1508569275.8,286047004.8,N
1508569295.7,286047006.8,N
1508569315.5,286047004.4,N
1508569335.3,286047002.9,N
1508569355.2,286047001.9,N
1508569375.9,286046998.4,N
1508569395.7,286046998.2,N
1508569415.6,286047004.0,N
1508569435.4,286047004.3,N
1508569455.2,286047003.2,N
1508569475.1,286047006.3,N
1508569476.0,286047006.3,N
1508569495.8,286047004.8,N
1508569515.6,286047000.6,N
1508569535.5,286047002.1,N
1508569555.3,286047002.4,N
1508569575.1,286046999.9,N
1508569595.9,286047000.2,N
1508569615.7,286047001.3,N
1508569635.5,286047003.0,N
1508569655.3,286047005.2,N
1508569675.2,286047004.5,N
1508569695.0,286047006.8,N
1508569695.9,286047006.8,N
1508569715.8,286047010.0,Y
1508569735.6,286047008.0,P
1508569755.4,286047009.1,P
1508569775.2,286047006.9,N
1508569795.1,286047005.1,N
1508569796.0,286047005.1,N
1508569815.8,286047003.2,N
1508569835.6,286046999.9,N
1508569855.5,286047001.6,N
1508569875.3,286046996.5,N
1508569895.1,286046998.9,N
1508569915.9,286046998.1,N
1508569935.7,286046998.8,N
1508569955.5,286047000.4,N
1508569975.4,286046998.6,N
1508569995.2,286046996.7,N
1508570015.0,286046995.8,N
1508570015.9,286046995.8,N
1508570035.8,286046997.0,N
1508570055.6,286046998.9,N
1508570075.4,286046998.7,N
1508570095.3,286047000.3,N
1508570115.1,286046997.1,N
1508570116.0,286046997.1,N
1508570135.8,286047000.2,N
1508570155.7,286047002.6,N
1508570175.5,286046998.2,N
1508570195.3,286046998.7,N
1508570215.2,286046999.3,N
1508570235.9,286047000.3,N
1508570255.7,286046996.7,N
1508570275.6,286046998.5,N
1508570295.4,286046999.1,N
1508570315.2,286046996.8,N
1508570335.0,286046998.0,N
1508570336.0,286046998.0,N
1508570355.8,286046998.9,N
1508570375.6,286046998.5,N
1508570395.4,286046999.0,N
1508570415.3,286046998.5,N
1508570435.1,286047000.1,N
1508570455.8,286046999.9,N
1508570475.7,286047001.0,N
1508570495.5,286047002.7,N
1508570515.3,286046998.2,N
1508570535.2,286047002.5,N
1508570555.9,286047002.0,N
1508570575.7,286047002.4,N
1508570595.6,286046999.7,N
1508570615.4,286047004.4,N
1508570635.2,286047003.2,N
1508570655.1,286047002.4,N
1508570656.0,286047002.4,N
1508570675.8,286047000.1,N
1508570695.6,286046999.8,N
1508570715.5,286046997.0,N
1508570735.3,286046998.2,N
1508570755.1,286046999.4,N
1508570775.8,286046998.0,N
1508570795.7,286046999.1,N
1508570815.5,286046998.9,N
1508570835.3,286046996.9,N
1508570855.2,286046998.8,N
1508570875.0,286047001.1,N
1508570875.9,286047001.1,N
1508570895.7,286046999.3,N
1508570915.6,286047000.0,N
1508570935.4,286047000.3,N
1508570955.2,286046999.6,N
1508570975.1,286046997.7,N
1508570976.0,286046997.7,N
1508570995.8,286046996.9,N
1508571015.6,286046998.6,N
1508571035.5,286046998.6,N
1508571055.3,286047002.1,N
1508571075.1,286047000.2,N
1508571095.9,286046998.6,N
1508571115.7,286046999.4,N
1508571135.5,286046996.5,N
1508571155.4,286046997.6,N
1508571175.2,286047000.8,N
1508571195.0,286046999.0,N
1508571195.9,286046999.0,N
1508571215.8,286046996.7,N
1508571235.6,286046997.2,N
1508571255.4,286046994.1,Y
1508571275.3,286046995.1,P
1508571295.1,286046997.3,N
1508571315.8,286046996.7,N
1508571335.7,286046999.0,N
1508571355.5,286046996.1,N
1508571375.3,286046995.0,Y
1508571395.2,286047002.5,P
1508571415.0,286047000.4,N
1508571415.9,286047000.4,N
1508571435.7,286047001.4,N
1508571455.6,286047001.2,N
1508571475.4,286046996.9,N
1508571495.2,286047001.0,N
1508571515.1,286047000.6,N
1508571516.0,286047000.6,N
1508571535.8,286046996.5,N
1508571555.6,286046996.6,N
1508571575.5,286046999.2,N
1508571595.3,286047000.5,N
1508571615.1,286046999.0,N
1508571635.9,286046997.2,N
1508571655.7,286046999.2,N
1508571675.5,286046999.6,N
1508571695.4,286046995.7,N
1508571715.2,286046995.8,N
1508571735.0,286046995.0,N
1508571735.9,286046995.0,N
1508571755.8,286046996.9,N
1508571775.6,286047000.7,N
1508571795.4,286047001.1,N
1508571815.3,286046996.9,N
1508571835.1,286046997.1,N
1508571855.9,286046999.3,N
1508571875.7,286046998.7,N
1508571895.5,286047000.1,N
1508571915.4,286046997.3,N
1508571935.2,286046996.6,N
1508571955.0,286046998.8,N
1508571955.9,286046998.8,N
1508571975.8,286046998.2,N
1508571995.6,286046999.8,N
1508572015.4,286046998.1,N
1508572035.3,286047000.5,N
1508572055.1,286047000.9,N
1508572056.0,286047000.9,N
1508572075.8,286047002.1,N
1508572095.7,286047000.2,N
1508572115.5,286047002.4,N
1508572135.3,286047000.2,N
1508572155.2,286046998.9,N
1508572175.9,286046995.5,N
1508572195.7,286046998.0,N
1508572215.6,286046995.0,N
1508572235.4,286046997.8,N
1508572255.2,286046997.5,N
1508572275.1,286047001.0,N
1508572276.0,286047001.0,N
1508572295.8,286047004.3,N
1508572315.6,286047001.3,N
1508572335.5,286047008.1,Y
1508572355.3,286047005.1,P
1508572375.1,286047003.8,N
1508572395.9,286047000.4,N
1508572415.7,286046999.3,N
1508572435.5,286046995.9,N
1508572455.4,286046996.1,N
1508572475.2,286046998.6,N
1508572495.0,286047001.3,N
1508572495.9,286047001.3,N
1508572515.8,286047003.8,N
1508572535.6,286047003.2,N
1508572555.4,286047003.4,N
1508572575.3,286046999.7,N
1508572595.1,286046996.7,N
1508572596.0,286046996.7,N
1508572615.8,286046998.1,N
1508572635.7,286047002.3,N
1508572655.5,286047001.7,N
1508572675.3,286047001.6,N
1508572695.2,286047002.3,N
1508572715.9,286046998.4,N
1508572735.7,286046998.1,N
1508572755.6,286047002.9,N
1508572775.4,286047005.8,N
1508572795.2,286047003.0,N
